Location: Janeiro
(34.9957°N, 76.7652°W)
Time: 12:52:24
(UTC+00:00)

AQUARIUS - Pass Details

Date: 14 December 2019
Orbit: 650 x 653 km, 98.0° (Epoch: 25 January)

Event Time Altitude Azimuth Distance (km) Brightness Sun altitude
Rises 22:31:48 0° 161° (SSE) 2,959 7.6 -7.4°
Reaches altitude 10° 22:34:01 10° 159° (SSE) 2,052 6.8 -7.8°
Maximum altitude 22:38:28 71° 76° (ENE) 693 4.1 -8.6°
Drops below altitude 10° 22:42:57 10° 353° (N) 2,065 6.6 -9.5°
Sets 22:45:11 0° 351° (N) 2,980 7.4 -9.9°
